Vertical_Velocity
-3 -6 -2 0 -7 -7 -1 3 -1 10 0 -1 0 3 3 3 3 2 -1 0 3 1 0 1 1 -2 -0 -1 -1 -5 -7 0 -2 0 2 -2 -6 -2 1 -2 -5 -2 6 3
-2 -1 2 2 2 -2 -2 -3 -0 3 -1 1 1 0 2 1 4 1 1 1 2 -0 0 -1 -2 -1 -0 2 -2 -3 -8 -4 -2 -11 -2 1 2 -2 -0 2 5 8 1 -3
-1 -5 -1 2 -4 -0 -3 -1 7 2 -1 1 -0 -0 3 0 2 1 2 2 2 1 -0 -1 -3 -2 2 1 0 -1 -0 -2 -5 -4 -3 -6 -11 0 -3 -2 -0 3 4 5
-1 -2 -2 -1 4 -2 -2 -1 -4 4 -1 2 0 1 0 0 3 3 1 2 0 -0 2 1 -1 0 2 -3 0 -1 2 2 -1 1 -1 -0 -1 -2 -3 -2 -1 1 5 2
1 -0 -2 -3 1 3 -1 -1 -0 2 1 3 0 -3 0 1 2 3 -0 2 -0 -1 0 -0 -1 1 -1 -4 1 0 -1 1 6 3 2 2 -2 -1 -2 -1 -0 0 -1 6
1 -4 -1 -3 -2 -1 0 -0 -4 -1 -0 -1 2 -1 -0 0 1 1 -0 2 0 -0 -1 -1 -1 -1 -3 -2 -0 1 -4 -1 -1 -4 3 -0 2 -1 1 -2 -1 -2 -2 -2
-0 -3 1 -2 -1 -2 -2 1 1 0 3 -3 1 0 -0 1 1 2 0 1 0 1 -1 -0 0 0 0 -1 -2 -1 -1 -2 0 6 -4 -7 -1 -2 2 2 -2 1 2 1
1 -1 -1 -1 -2 -4 -1 0 1 -0 2 0 2 3 0 0 1 3 2 1 1 1 -1 0 0 6 4 1 -2 -2 -1 -2 -6 -9 4 19 14 -0 0 0 3 3 2 -3
-0 -0 0 -3 -3 -3 1 0 -1 -2 2 2 -1 -0 1 1 1 1 2 2 1 1 0 -0 -1 1 -2 3 4 -1 -0 -1 -5 -1 -3 -9 -3 -3 -3 -1 0 -4 -2 -0
2 -0 -2 -1 -5 -3 0 1 -1 -1 1 0 -1 -0 4 1 0 2 1 1 -0 -0 1 -1 -2 3 -2 1 -2 -3 1 5 -1 2 -3 6 -1 -1 -1 -5 -5 -2 1 -1
4 -0 -0 -3 -4 -2 0 2 0 -1 2 -3 1 -0 -0 2 0 -0 1 2 0 1 0 2 -2 2 1 1 -0 -4 -2 -3 -1 1 -4 -4 -3 -2 -2 3 3 0 2 -0
-1 -1 0 -3 -3 -3 -1 -1 0 1 1 -3 3 0 3 1 -0 -1 1 1 0 -1 -0 1 3 -1 -1 -0 -0 -1 1 -1 -3 -6 -4 -4 -1 1 1 0 -1 2 1 -0
-1 -1 0 -0 -3 -2 -1 -2 -1 -1 3 2 2 0 4 2 1 -0 0 2 1 0 -1 -0 1 -1 1 -1 2 -0 1 -1 -1 -2 -5 -3 -4 -5 -6 -1 -0 0 -0 -1
-2 1 -2 1 -1 -2 -2 -1 -1 -3 -1 1 3 2 2 3 1 -0 0 0 1 1 1 0 1 -3 3 1 -1 -1 -1 -0 2 1 2 -1 -2 -1 -1 0 -1 -1 0 -1
-1 1 4 3 -0 -6 0 -2 -2 -2 -3 -1 5 1 2 -1 3 -0 1 -0 0 2 1 -1 0 2 -0 -0 -2 2 -0 -2 -3 -1 0 0 2 1 -1 -2 -1 -1 -1 -1
1 -0 1 3 -0 -1 -6 5 -2 -5 -2 -7 5 11 5 4 3 3 0 -1 0 2 -0 -1 2 -1 -1 0 0 2 0 -1 0 2 -2 -4 0 -1 -0 -1 -1 -1 -1 -1
-1 3 2 2 4 -1 -3 -7 -1 -3 -3 -5 -5 3 5 -0 2 4 3 1 0 -1 2 1 -1 -0 -1 -0 -1 1 -0 1 -1 2 3 -0 -6 -0 -1 -1 -2 -1 -0 -2
1 -1 1 3 1 3 2 -3 -1 -5 -2 -3 -6 -0 -0 -4 3 -2 -1 2 1 4 2 0 -1 -0 -0 0 1 -0 1 2 -1 -1 -0 -0 1 -1 -1 -0 3 -2 -3 -1
0 -6 -6 -2 6 2 2 2 1 3 -2 -8 0 -2 -3 5 1 1 -1 1 0 5 3 1 0 -0 -3 0 0 1 0 1 4 1 -1 1 -1 -1 -2 0 -2 -1 -2 -1
-10 -2 -7 -8 -2 4 2 7 -3 2 8 1 3 -4 1 -2 1 5 -3 2 0 -1 12 -2 6 2 1 -0 1 0 -1 -1 -0 2 0 1 -3 -2 -4 -2 -1 -2 -1 0
-7 -4 1 -1 -4 -2 -1 0 18 2 -0 7 2 1 2 0 3 1 -1 -1 -8 -0 7 -3 7 4 3 3 1 0 -0 -0 -1 1 -2 -3 -0 1 -1 1 -0 -2 -1 -2
-6 -8 -3 -0 -0 -8 8 3 9 2 -3 0 0 -0 -0 0 -0 1 -3 -0 -3 -3 1 -3 2 1 2 5 2 -1 1 4 1 -0 0 0 0 -0 -1 -1 -1 -1 -2 -2
1 -5 -7 -4 -12 6 -3 2 3 0 -2 -1 -5 -2 1 4 5 2 -2 -4 -3 2 4 3 -0 2 3 3 1 3 -5 2 1 -1 0 -0 1 -1 -0 -0 -1 -1 -1 -1
-3 -6 -5 -1 11 2 8 1 5 -1 1 2 -1 -1 -1 5 -1 0 -2 -7 -1 1 4 3 -1 2 0 1 1 2 2 -1 0 -1 -1 -1 1 0 -1 -1 -1 -1 -1 -2
2 0 -4 2 -4 3 1 1 5 7 8 3 3 2 5 1 -2 -1 2 -2 4 5 -5 -0 6 0 0 2 3 0 3 1 -1 -1 -0 -0 -0 0 -0 0 -0 -1 -1 -2
-1 6 14 8 -5 5 2 5 3 5 6 2 3 -0 -4 -4 -3 2 0 6 13 -0 -9 1 2 2 1 1 2 -1 1 -0 1 0 -0 0 0 0 -0 1 -0 -2 -1 -1
6 3 7 -7 -1 -0 7 -3 4 4 2 2 5 -7 -3 -5 -10 1 8 8 -3 -3 -1 1 1 1 5 4 2 0 1 1 0 -0 0 0 1 1 0 1 -2 -1 -1 -1
Height
5753 5746 5739 5733 5727 5721 5715 5710 5706 5702 5698 5695 5689 5685 5681 5677 5673 5670 5667 5665 5662 5658 5653 5649 5643 5637 5629 5622 5615 5608 5599 5589 5579 5569 5557 5544 5532 5520 5507 5493 5481 5469 5462 5454
5750 5742 5735 5729 5722 5717 5710 5703 5698 5695 5692 5688 5684 5679 5675 5671 5668 5664 5662 5660 5657 5653 5648 5644 5638 5632 5626 5618 5611 5604 5596 5587 5577 5565 5557 5544 5534 5522 5510 5497 5485 5475 5463 5452
5745 5738 5731 5723 5718 5711 5707 5700 5694 5691 5687 5683 5679 5675 5671 5666 5663 5660 5658 5655 5652 5648 5644 5638 5633 5627 5622 5614 5607 5600 5593 5585 5575 5566 5555 5544 5532 5522 5511 5499 5486 5475 5465 5456
5740 5734 5727 5719 5712 5707 5703 5698 5692 5686 5683 5679 5675 5670 5666 5662 5659 5656 5653 5650 5646 5643 5639 5635 5629 5623 5617 5610 5603 5597 5590 5584 5575 5565 5555 5545 5534 5523 5512 5501 5489 5476 5467 5455
5734 5729 5722 5715 5708 5702 5697 5693 5688 5684 5679 5675 5671 5666 5662 5656 5653 5651 5647 5644 5641 5637 5633 5628 5623 5617 5612 5605 5600 5593 5587 5580 5573 5564 5555 5545 5535 5524 5513 5502 5491 5480 5467 5459
5727 5723 5717 5710 5703 5696 5690 5685 5681 5677 5674 5670 5666 5662 5657 5652 5648 5645 5642 5639 5636 5632 5628 5624 5618 5613 5608 5601 5595 5590 5583 5576 5569 5561 5552 5543 5534 5523 5513 5502 5491 5481 5469 5459
5720 5716 5710 5704 5698 5691 5685 5680 5675 5673 5669 5665 5661 5657 5652 5647 5643 5640 5637 5633 5630 5627 5622 5619 5614 5609 5605 5598 5591 5585 5578 5571 5564 5558 5549 5540 5531 5521 5511 5504 5493 5482 5472 5461
5714 5709 5703 5698 5692 5686 5679 5674 5671 5667 5664 5660 5656 5651 5647 5642 5638 5635 5631 5627 5624 5620 5616 5613 5609 5605 5601 5594 5588 5581 5574 5568 5560 5553 5546 5541 5531 5522 5512 5502 5495 5484 5473 5463
5708 5702 5697 5691 5685 5679 5672 5667 5663 5661 5658 5654 5650 5646 5642 5637 5633 5629 5625 5622 5617 5613 5610 5606 5601 5596 5590 5585 5582 5577 5571 5564 5557 5550 5543 5535 5528 5520 5510 5501 5493 5481 5471 5461
5700 5695 5690 5684 5678 5672 5666 5660 5656 5653 5650 5647 5643 5640 5636 5632 5628 5624 5619 5616 5611 5607 5604 5600 5596 5592 5587 5581 5575 5569 5565 5560 5553 5546 5540 5533 5525 5518 5508 5499 5492 5479 5470 5461
5694 5688 5683 5677 5671 5665 5659 5654 5649 5646 5643 5641 5637 5633 5629 5626 5622 5618 5614 5610 5606 5601 5597 5594 5589 5585 5581 5576 5571 5564 5559 5554 5548 5542 5536 5530 5522 5514 5506 5498 5488 5478 5468 5459
5686 5681 5676 5670 5664 5659 5653 5648 5643 5640 5636 5635 5631 5626 5623 5620 5616 5613 5608 5603 5598 5594 5590 5587 5582 5577 5573 5568 5564 5560 5556 5552 5546 5539 5533 5526 5519 5511 5502 5494 5484 5476 5466 5457
5679 5674 5669 5663 5657 5652 5647 5642 5636 5632 5630 5628 5624 5620 5616 5612 5609 5606 5602 5597 5592 5588 5584 5580 5575 5570 5566 5561 5558 5553 5550 5545 5541 5534 5528 5522 5515 5507 5499 5490 5481 5472 5463 5453
5671 5666 5660 5656 5650 5645 5640 5635 5630 5624 5621 5620 5619 5614 5609 5605 5602 5599 5595 5591 5586 5582 5578 5573 5569 5564 5562 5556 5551 5547 5543 5539 5535 5530 5523 5517 5510 5503 5495 5487 5478 5468 5459 5449
5661 5657 5653 5647 5642 5638 5633 5628 5623 5618 5614 5611 5611 5608 5603 5598 5594 5591 5588 5584 5579 5575 5572 5568 5564 5559 5555 5551 5545 5541 5538 5533 5527 5522 5518 5511 5505 5497 5489 5480 5472 5463 5453 5443
5652 5648 5644 5640 5634 5630 5625 5622 5617 5611 5606 5602 5599 5600 5596 5592 5587 5583 5580 5577 5573 5569 5565 5562 5559 5553 5549 5544 5540 5536 5531 5526 5521 5517 5511 5504 5497 5490 5482 5474 5465 5456 5447 5437
5643 5638 5634 5630 5626 5621 5617 5613 5609 5604 5598 5593 5589 5586 5587 5582 5578 5575 5572 5569 5565 5562 5559 5556 5552 5548 5543 5538 5533 5530 5524 5519 5514 5509 5504 5498 5490 5483 5475 5467 5458 5449 5440 5431
5633 5628 5623 5619 5615 5611 5608 5603 5600 5595 5589 5584 5580 5576 5575 5572 5570 5566 5563 5560 5557 5554 5551 5548 5545 5541 5537 5532 5528 5523 5518 5513 5507 5501 5496 5490 5483 5476 5467 5458 5450 5441 5432 5423
5622 5618 5613 5609 5604 5599 5596 5592 5589 5585 5582 5575 5573 5568 5564 5562 5561 5557 5554 5551 5548 5546 5543 5541 5538 5533 5529 5525 5520 5515 5510 5505 5500 5494 5487 5481 5474 5467 5458 5450 5441 5433 5423 5414
5611 5606 5601 5597 5593 5586 5584 5580 5575 5573 5571 5567 5564 5558 5556 5554 5550 5548 5546 5542 5538 5537 5537 5531 5529 5525 5521 5517 5513 5508 5502 5497 5490 5485 5478 5472 5465 5457 5450 5441 5432 5423 5414 5404
5598 5592 5587 5582 5576 5572 5566 5561 5563 5559 5557 5555 5553 5549 5547 5544 5541 5537 5534 5532 5528 5527 5526 5522 5520 5516 5512 5508 5504 5499 5494 5489 5482 5476 5469 5462 5455 5448 5440 5431 5422 5413 5404 5394
5581 5573 5568 5565 5559 5556 5552 5549 5548 5547 5544 5541 5539 5537 5535 5533 5530 5527 5524 5521 5519 5517 5516 5512 5510 5506 5502 5499 5494 5489 5483 5479 5473 5465 5459 5452 5446 5438 5429 5421 5411 5402 5393 5383
5564 5558 5554 5548 5543 5538 5538 5535 5532 5530 5528 5526 5524 5523 5522 5521 5519 5516 5514 5511 5509 5508 5506 5503 5500 5496 5492 5488 5485 5480 5473 5468 5461 5454 5448 5441 5435 5427 5418 5410 5401 5392 5382 5372
5547 5539 5534 5530 5526 5522 5519 5517 5515 5512 5510 5510 5510 5509 5509 5508 5506 5505 5502 5500 5500 5497 5496 5492 5488 5485 5481 5477 5474 5469 5463 5457 5451 5444 5437 5431 5423 5416 5407 5399 5390 5380 5370 5361
5528 5521 5513 5510 5505 5501 5499 5499 5498 5497 5495 5494 5494 5493 5492 5492 5492 5492 5493 5490 5488 5486 5482 5479 5477 5474 5470 5467 5463 5458 5453 5447 5441 5434 5427 5420 5413 5405 5397 5387 5378 5369 5358 5348
5508 5502 5494 5487 5482 5480 5478 5479 5478 5479 5478 5477 5477 5474 5473 5477 5478 5481 5481 5480 5480 5474 5470 5468 5465 5463 5459 5455 5451 5446 5442 5436 5430 5424 5417 5410 5402 5394 5385 5375 5366 5356 5346 5336
5484 5477 5470 5461 5460 5459 5458 5455 5456 5458 5459 5460 5460 5458 5459 5462 5464 5469 5470 5469 5465 5463 5460 5457 5455 5451 5448 5444 5440 5435 5431 5425 5420 5413 5407 5399 5391 5382 5373 5363 5353 5343 5333 5323